sat.trackr.live / text

‹ back to catalog

LEMUR-2-WOBLER

NORAD 67368 · 2026-004F

PAYLOAD ACTIVE UNKNOWN

§ Identity

Operator
Country
US
Launch date
2026-01-11
Launch site
AFWTR
Launch vehicle
Mass (kg)
RCS (m²)

Purposes: earth_obs

External: N2YO · Heavens-Above · Gunter

§ Orbital elements

Epoch: 2026-09-19T19:22:13.528128Z

Period
96.70 min
Inclination
97.8112°
Eccentricity
0.0008131
Mean motion
14.89088602 rev/d
Perigee alt
595.1 km
Apogee alt
606.5 km
Semi-major
6,978.9 km
B*
2.8357e-4
RAAN
260.1387°
Arg perigee
168.5295°
Mean anomaly
191.6108°
Rev number
3,737

§ Raw data

LEMUR-2-WOBLER1 67368U 26004F   26262.80710102  .00002620  00000+0  28357-3 0  99962 67368  97.8112 260.1387 0008131 168.5295 191.6108 14.89088602 37378

JSON: /api/v1/satellites/67368 · /tle

For live sub-satellite position, see the globe view (requires WebGL).

§ Visibility from observer

Set your observer location to see the next 7 days of passes ≥ 10°. The values pass through the URL so the page stays shareable.

No JS? Fill the form by hand. The geolocation button needs JavaScript.